Regional Weather Roundup
Issued by NWS

Home | Current Version | Previous Version | Text Only | Print | Product List | Glossary On
Versions: 1 2 3 4 5 6 7 8 9 10 11 12 13 14 15 16 17 18 19 20 21 22 23 24 25 26 27 28 29 30 31 32 33 34 35 36 37 38 39 40 41 42 43 44 45 46 47 48 49 50
000
ASUS43 KMKX 280359
RWRWI

WISCONSIN REGIONAL WEATHER ROUNDUP
NATIONAL WEATHER SERVICE MILWAUKEE/SULLIVAN WI
1000 PM CST FRI FEB 27 2015

NOTE: "FAIR" INDICATES FEW OR NO CLOUDS BELOW 12,000 FEET WITH NO
SIGNIFICANT WEATHER AND/OR OBSTRUCTIONS TO VISIBILITY.

WIZ001-002-006>008-014>016-023>028-280500-
NORTHWEST WISCONSIN

CITY           SKY/WX    TMP DP  RH WIND       PRES   REMARKS
SUPERIOR ARPT  CLEAR      9  -4  55 SW7       30.46S WCI  -2
ASHLAND        CLEAR      9  -6  50 SW7       30.46R WCI  -2
HAYWARD        FAIR       0  -9  65 SW6       30.46R WCI -12
SIREN          FAIR       7  -3  62 SW7       30.49R WCI  -4
CUMBERLAND     CLEAR      1  -6  71 SW7       30.48R WCI -11
RICE LAKE      CLEAR      5  -3  68 S3        30.51S
CHETEK         CLEAR      3  -4  73 CALM      30.51R
LADYSMITH      CLEAR      5  -3  72 SW3       30.50S
EAU CLAIRE     NOT AVBL
MENOMONIE      CLEAR      6  -3  67 SW7       30.54S WCI  -6
NEW RICHMOND   CLEAR      4  -3  72 S8        30.51S WCI  -9
OSCEOLA        CLEAR      4  -3  72 S5        30.54S WCI  -5
$$

WIZ003>005-009-010-017-018-280500-
NORTH CENTRAL WISCONSIN

CITY           SKY/WX    TMP DP  RH WIND       PRES   REMARKS
MANITOWISH WTR CLEAR      2 -11  55 SW3       30.41R
ARBOR VITAE    CLEAR      5  -8  54 CALM      30.41S
WOODRUFF       CLEAR      5  -8  54 CALM      30.41S
RHINELANDER    CLEAR     -1 -10  65 SW5       30.43R WCI -11
EAGLE RIVER    CLEAR      2 -11  55 SW5       30.41R WCI  -8
LAND O LAKES   CLEAR      4  -8  58 SW3       30.40R
PHILLIPS       FAIR       3  -5  69 SW6       30.44S WCI  -8
TOMAHAWK       CLEAR      2  -6  67 CALM      30.46R
MEDFORD        PTCLDY     2  -6  70 SW5       30.46S WCI  -7
MERRILL        CLEAR     -3  -8  79 CALM      30.48R
$$

WIZ029-030-035-036-043>047-280500-
CENTRAL WISCONSIN

CITY           SKY/WX    TMP DP  RH WIND       PRES   REMARKS
WAUSAU         FAIR       4  -5  66 CALM      30.49R
MOSINEE        CLEAR      3  -6  66 SW5       30.51R WCI  -6
MARSHFIELD     PTCLDY     3  -8  60 W7        30.51R WCI  -9
STEVENS POINT  PTCLDY     5  -8  55 W3        30.53R
WAUPACA        CLEAR      8  -6  52 SW6       30.56R WCI  -2
WAUTOMA        NOT AVBL
WISC RAPIDS    CLEAR      1  -9  62 SW3       30.56R
CAMP DOUGLAS   NOT AVBL
$$

WIZ011>013-019>022-031-037>040-048>050-280500-
NORTHEAST WISCONSIN

CITY           SKY/WX    TMP DP  RH WIND       PRES   REMARKS
ANTIGO         CLEAR      3  -6  66 W7        30.45S WCI -10
SHAWANO        CLEAR     10  -5  50 CALM      30.54R
OCONTO         CLEAR      8  -6  53 SW5       30.54R WCI  -1
STURGEON BAY   FAIR       9  -6  52 SW6       30.55R WCI  -1
GREEN BAY      CLEAR     10  -3  55 SW7       30.56R WCI  -1
MANITOWOC      NOT AVBL
APPLETON       CLEAR      9  -6  52 SW9       30.55R WCI  -5
CLINTONVILLE   CLEAR      9  -6  52 W5        30.55R WCI   0
OSHKOSH        CLEAR      7  -4  60 SW5       30.57R WCI  -2
$$

WIZ032>034-041-042-053>061-280500-
SOUTHWEST WISCONSIN

CITY           SKY/WX    TMP DP  RH WIND       PRES   REMARKS
LA CROSSE      CLEAR      3  -7  63 S6        30.62R WCI  -8
SPARTA         CLEAR     -3  -9  77 CALM      30.59R
VIROQUA        CLEAR     -1  -7  76 SW8       30.54R WCI -16
BOSCOBEL       PTCLDY    -1  -9  68 CALM      30.64R
PRAIRIE DU CHI PTCLDY    -4 -11  70 CALM      30.64R
PLATTEVILLE    MOCLDY    -1  -7  75 S3        30.60S
$$

WIZ056-057-062-063-064-067-068-280500-
SOUTH CENTRAL WISCONSIN

CITY           SKY/WX    TMP DP  RH WIND       PRES   REMARKS
REEDSBURG      CLEAR      7  -6  57 SW5       30.58R WCI  -2
BARABOO/DELLS  CLEAR      4  -6  62 SW8       30.57R WCI  -9
LONE ROCK      NOT AVBL
MINERAL POINT  FAIR       3  -8  60 SW7       30.58R WCI  -9
MADISON        FAIR       5  -6  60 VRB3      30.60R
MIDDLETON      FAIR       6  -6  57 SW5       30.60R WCI  -3
WATERTOWN      CLEAR      4  -5  66 SW3       30.60R
MONROE         FAIR       1  -6  71 SW9       30.59R WCI -14
JANESVILLE     CLEAR      3  -8  60 SW5       30.63R WCI  -6
$$

WIZ051-052-058>065-066-070>072-280500-
SOUTHEAST WISCONSIN

CITY           SKY/WX    TMP DP  RH WIND       PRES   REMARKS
MILWAUKEE      CLEAR      7  -6  55 SW9       30.63R WCI  -7
WAUKESHA       CLEAR      3  -6  66 SW5       30.62R WCI  -6
MILWAUKEE/TIMM CLEAR      7  -6  56 SW7       30.63R WCI  -5
RACINE         CLEAR      5  -7  57 SW7       30.65R WCI  -7
BURLINGTON     CLEAR     -4 -10  74 SW3       30.63R
KENOSHA        CLEAR      0  -8  69 W8        30.63R WCI -14
FOND DU LAC    CLEAR      7  -4  60 SW9       30.58R WCI  -7
SHEBOYGAN      CLEAR      7  -4  60 SW10      30.58R WCI  -8
WEST BEND      CLEAR      9  -6  52 SW6       30.59R WCI  -1
JUNEAU         CLEAR      3  -5  68 S8        30.60R WCI -10
$$

LSZ147-162-280500-
LAKE SUPERIOR

STATION/POSITION TIME  TEMP    WIND        PRES    WAVE
                       AIR SEA DIR/SP/G            HT/PER
                 (UTC) (F)     (DEG/KT/KT) (MB)    (FT/S)
DEVILS ISLAND    0300   14     220/ 13/ 16 1032.0R
PORT WING        0300   13     190/  8/ 11 1031.2R
SAXON HARBOR     0300   12     190/  3/  6 1031.5R
$$

LMZ867-665-643>646-280500-
LAKE MICHIGAN

STATION/POSITION TIME  TEMP    WIND        PRES    WAVE
                       AIR SEA DIR/SP/G            HT/PER
                 (UTC) (F)     (DEG/KT/KT) (MB)    (FT/S)
NORTHPORT PIER   0300   13     230/  5/ 11 1032.8R
SISTER BAY       0243   13     250/ 12/ 15   N/A
KEWAUNEE LAKESHO 0300   12     220/  8/ 11 1033.3R
SHEBOYGAN LAKESH 0300   12     230/ 11/ 14 1037.5R
PORT WASHINGTON  0340   10     260/  9/ 13 1037.3R
MILWAUKEE LAKESH 0300   11     250/ 13/ 16   N/A
KENOSHA   LAKESH 0300    8     240/  7/ 10 1037.3R
$$

TC  - TEMPERATURE IN CELSIUS
VSB - VISIBILITY IN STATUTE MILES
WCI - WIND CHILL INDEX
HX  - HEAT INDEX




USA.gov is the U.S. government's official web portal to all federal, state and local government web resources and services.